TimeEST,TemperatureF,Dew PointF,Humidity,Sea Level PressureIn,VisibilityMPH,Wind Direction,Wind SpeedMPH,Gust SpeedMPH,PrecipitationIn,Events,Conditions,WindDirDegrees,DateUTC
12:14 AM,55.8,49.8,80,29.76,10.0,SSW,15.0,-,N/A,,Scattered Clouds,210,2013-12-05 05:14:00
12:35 AM,56.3,50.2,80,29.76,10.0,SSW,13.8,21.9,N/A,,Scattered Clouds,200,2013-12-05 05:35:00
12:54 AM,56.3,50.4,80,29.76,10.0,SSW,15.0,18.4,N/A,,Mostly Cloudy,210,2013-12-05 05:54:00
1:14 AM,56.3,50.7,82,29.77,10.0,SSW,11.5,17.3,N/A,,Mostly Cloudy,200,2013-12-05 06:14:00
1:34 AM,56.7,51.1,82,29.77,10.0,SSW,12.7,-,N/A,,Overcast,210,2013-12-05 06:34:00
1:55 AM,57.6,51.8,81,29.76,10.0,SSW,12.7,17.3,N/A,,Overcast,210,2013-12-05 06:55:00
2:14 AM,59.0,52.5,79,29.76,10.0,SSW,16.1,19.6,N/A,,Overcast,210,2013-12-05 07:14:00
2:34 AM,59.0,52.5,79,29.77,10.0,SSW,12.7,18.4,N/A,,Overcast,210,2013-12-05 07:34:00
2:55 AM,59.2,52.7,79,29.78,10.0,SSW,12.7,17.3,N/A,,Overcast,210,2013-12-05 07:55:00
3:14 AM,59.0,52.7,80,29.78,10.0,SSW,11.5,17.3,N/A,,Overcast,210,2013-12-05 08:14:00
3:34 AM,59.0,52.9,80,29.78,10.0,SW,8.1,-,N/A,,Overcast,220,2013-12-05 08:34:00
3:55 AM,58.5,52.7,81,29.78,7.0,SW,9.2,-,N/A,,Overcast,220,2013-12-05 08:55:00
4:14 AM,58.5,52.9,82,29.78,7.0,SW,11.5,-,N/A,,Overcast,220,2013-12-05 09:14:00
4:34 AM,58.6,53.1,82,29.79,7.0,SW,9.2,-,N/A,,Overcast,220,2013-12-05 09:34:00
4:55 AM,57.9,52.7,83,29.80,7.0,SW,8.1,-,N/A,,Overcast,220,2013-12-05 09:55:00
5:14 AM,57.4,52.7,84,29.80,7.0,SW,8.1,-,N/A,,Overcast,220,2013-12-05 10:14:00
5:34 AM,57.4,52.7,84,29.79,7.0,SSW,6.9,-,N/A,,Overcast,200,2013-12-05 10:34:00
5:55 AM,56.7,52.5,86,29.79,7.0,SSW,6.9,-,N/A,,Scattered Clouds,200,2013-12-05 10:55:00
6:14 AM,56.3,52.2,86,29.79,5.0,SSW,4.6,-,N/A,,Scattered Clouds,200,2013-12-05 11:14:00
6:34 AM,55.8,52.0,87,29.80,5.0,SSW,4.6,-,N/A,,Overcast,210,2013-12-05 11:34:00
6:55 AM,57.4,53.6,87,29.80,5.0,SSW,6.9,-,N/A,,Overcast,210,2013-12-05 11:55:00
7:14 AM,57.2,53.2,87,29.81,5.0,SW,5.8,-,N/A,,Overcast,220,2013-12-05 12:14:00
7:34 AM,57.2,53.2,87,29.81,5.0,SW,5.8,-,N/A,,Overcast,220,2013-12-05 12:34:00
7:55 AM,57.2,53.4,87,29.82,4.0,SW,8.1,-,N/A,,Mostly Cloudy,220,2013-12-05 12:55:00
8:14 AM,57.2,53.6,88,29.83,4.0,WSW,8.1,-,N/A,,Scattered Clouds,240,2013-12-05 13:14:00
8:34 AM,57.2,52.2,83,29.85,5.0,WNW,16.1,19.6,N/A,,Mostly Cloudy,300,2013-12-05 13:34:00
8:55 AM,53.6,48.2,82,29.86,5.0,WNW,16.1,24.2,N/A,,Overcast,300,2013-12-05 13:55:00
9:14 AM,52.7,47.5,82,29.88,5.0,WNW,15.0,21.9,N/A,,Overcast,290,2013-12-05 14:14:00
9:34 AM,52.3,47.3,83,29.88,5.0,WNW,12.7,-,N/A,,Overcast,300,2013-12-05 14:34:00
9:55 AM,52.2,46.2,80,29.89,5.0,West,16.1,19.6,N/A,,Overcast,280,2013-12-05 14:55:00
10:14 AM,51.8,45.5,79,29.90,5.0,West,10.4,-,N/A,,Overcast,280,2013-12-05 15:14:00
10:34 AM,51.8,44.8,77,29.90,5.0,WNW,6.9,-,N/A,,Scattered Clouds,300,2013-12-05 15:34:00
10:55 AM,50.9,41.5,70,29.90,10.0,WNW,10.4,-,N/A,,Scattered Clouds,290,2013-12-05 15:55:00
11:14 AM,50.2,41.9,73,29.92,7.0,NW,11.5,-,N/A,,Mostly Cloudy,310,2013-12-05 16:14:00
11:34 AM,49.5,41.2,73,29.92,7.0,WNW,10.4,17.3,N/A,,Overcast,290,2013-12-05 16:34:00
11:55 AM,48.0,38.5,70,29.92,10.0,NW,11.5,-,N/A,,Overcast,310,2013-12-05 16:55:00
12:14 PM,47.5,38.3,70,29.92,10.0,NW,15.0,20.7,N/A,,Overcast,320,2013-12-05 17:14:00
12:34 PM,47.3,37.4,68,29.93,10.0,NW,12.7,-,N/A,,Overcast,310,2013-12-05 17:34:00
12:55 PM,45.0,35.4,69,29.92,10.0,WNW,12.7,-,N/A,,Overcast,300,2013-12-05 17:55:00
1:14 PM,44.8,34.5,67,29.95,10.0,WNW,11.5,21.9,N/A,,Overcast,300,2013-12-05 18:14:00
1:34 PM,43.7,34.0,69,29.95,10.0,WNW,11.5,17.3,N/A,,Overcast,300,2013-12-05 18:34:00
1:54 PM,43.3,32.7,66,29.95,10.0,WNW,13.8,18.4,N/A,,Overcast,290,2013-12-05 18:54:00
2:14 PM,42.8,32.0,66,29.97,10.0,NW,10.4,-,N/A,,Overcast,310,2013-12-05 19:14:00
2:34 PM,41.9,31.5,66,29.95,10.0,NW,6.9,-,N/A,,Overcast,310,2013-12-05 19:34:00
2:54 PM,41.4,31.8,69,29.94,10.0,NNW,8.1,-,N/A,,Overcast,340,2013-12-05 19:54:00
3:14 PM,40.3,30.7,69,29.97,10.0,NW,9.2,-,N/A,,Overcast,320,2013-12-05 20:14:00
3:34 PM,39.0,31.3,74,29.97,7.0,WNW,9.2,-,N/A,,Overcast,290,2013-12-05 20:34:00
3:54 PM,38.7,31.3,75,29.99,10.0,WNW,8.1,-,N/A,,Overcast,290,2013-12-05 20:54:00
4:14 PM,39.2,30.6,71,29.99,10.0,NW,4.6,-,N/A,,Overcast,320,2013-12-05 21:14:00
4:34 PM,38.8,29.7,70,30.01,10.0,NW,9.2,-,N/A,,Overcast,310,2013-12-05 21:34:00
4:54 PM,38.3,28.9,69,30.02,10.0,NNW,9.2,-,N/A,,Overcast,330,2013-12-05 21:54:00
5:14 PM,38.3,30.0,72,30.03,10.0,NNW,9.2,-,N/A,,Overcast,330,2013-12-05 22:14:00
5:34 PM,37.4,30.0,75,30.06,10.0,NW,16.1,20.7,N/A,,Overcast,310,2013-12-05 22:34:00
5:54 PM,35.8,30.0,80,30.07,10.0,NNW,6.9,-,N/A,,Overcast,330,2013-12-05 22:54:00
6:14 PM,35.6,30.4,81,30.08,10.0,NW,6.9,-,N/A,,Overcast,310,2013-12-05 23:14:00
6:35 PM,34.9,30.0,82,30.06,7.0,NNW,9.2,-,N/A,,Overcast,330,2013-12-05 23:35:00
6:54 PM,34.7,30.2,84,30.05,10.0,NNW,6.9,-,N/A,,Overcast,340,2013-12-05 23:54:00
7:15 PM,34.3,30.7,87,30.05,7.0,NNW,5.8,-,N/A,,Overcast,340,2013-12-06 00:15:00
7:34 PM,34.0,30.6,87,30.02,10.0,North,5.8,-,N/A,,Overcast,360,2013-12-06 00:34:00
7:54 PM,33.8,30.4,87,30.03,10.0,North,5.8,-,N/A,,Overcast,350,2013-12-06 00:54:00
8:15 PM,33.6,30.2,87,30.07,10.0,NNW,6.9,-,N/A,,Overcast,340,2013-12-06 01:15:00
8:34 PM,33.3,29.7,87,30.08,7.0,NNW,6.9,-,N/A,,Overcast,330,2013-12-06 01:34:00
8:54 PM,32.9,29.3,87,30.07,7.0,NNW,9.2,-,N/A,,Overcast,340,2013-12-06 01:54:00
9:15 PM,32.5,28.9,87,30.09,5.0,NNW,6.9,-,N/A,,Overcast,340,2013-12-06 02:15:00
9:34 PM,32.4,29.1,88,30.11,5.0,NNW,6.9,10.4,0.01,,Overcast,330,2013-12-06 02:34:00
9:54 PM,32.0,28.4,87,30.12,7.0,NNW,11.5,19.6,0.01,,Overcast,330,2013-12-06 02:54:00
10:14 PM,32.0,28.4,87,30.12,7.0,NNW,8.1,18.4,N/A,,Overcast,340,2013-12-06 03:14:00
10:34 PM,32.0,28.0,85,30.12,5.0,NNW,12.7,17.3,N/A,,Overcast,340,2013-12-06 03:34:00
10:54 PM,32.0,27.9,85,30.09,7.0,North,6.9,-,N/A,,Overcast,360,2013-12-06 03:54:00
11:14 PM,32.0,27.7,84,30.15,10.0,NNW,6.9,-,N/A,,Overcast,330,2013-12-06 04:14:00
11:17 PM,32.0,27.7,84,30.15,10.0,NNW,8.1,-,N/A,,Overcast,330,2013-12-06 04:17:00
11:45 PM,32.0,26.6,80,30.11,10.0,North,5.8,-,N/A,,Overcast,350,2013-12-06 04:45:00